2020-001BN

Last updated on Thu Jan 16 2020 00:02:07 GMT+0000 (Coordinated Universal Time)

1 44974U 20001BN 20015.35468738 .00100369 15345-4 22242-3 0 9999 2 44974 52.9972 355.5469 0008706 340.3160 19.7530 15.97816852 1322

Satellite not in orbit